User: anonymous   Login
Location: Unspecified
(0.0000°N, 0.0000°E)
Time: 07:19:02
(UTC+00:00)
Language:

Vanguard 1 - Orbit

View from above orbital plane
View from above orbital plane
View from above satellite
View from above satellite

Ground track
Ground track

The orbit data is extracted from the following two-line orbital elements,

1 00005U 58002B   16210.58437972 -.00000131  00000-0 -14020-3 0  9992
2 00005  34.2461 281.5960 1847739  83.8469 296.8345 10.84735802 51152
Epoch (UTC): 28 July 2016 14:01:30
Eccentricity: 0.1847739
inclination: 34.2461°
perigee height: 649 km
apogee height: 3835 km
right ascension of ascending node: 281.5960°
argument of perigee: 83.8469°
revolutions per day: 10.84735802
mean anomaly at epoch: 296.8345°
orbit number at epoch: 5115

The dashed part of the orbit path shows where the satellite is in the earth's shadow,  

DLR